Regional Weather Roundup
Issued by NWS Lake Charles, LA

Home | Current Version | Previous Version | Text Only | Print | Product List | Glossary On
Versions: 1 2 3 4 5 6 7 8 9 10 11 12 13 14 15 16 17 18 19 20 21 22 23 24 25 26 27 28 29 30 31 32 33 34 35 36 37 38 39 40 41 42 43 44 45 46 47 48 49 50
000
ASUS44 KLCH 210410
RWRLCH
RWRLCH
REGIONAL WEATHER ROUNDUP
NATIONAL WEATHER SERVICE LAKE CHARLES LA
1000 PM CST SAT DEC 20 2014

Note: "fair" indicates few or no clouds below 12,000 feet with no
significant weather and/or obstructions to visibility.


ACROSS SOUTHEAST TEXAS

CITY           SKY/WX    TMP DP  RH WIND       PRES   REMARKS
BEAUMONT       PTCLDY    50  46  86 NE8       30.17S
BEAUMONT CITY    N/A     47  46  93 NE6       30.18S
ORANGE         PTCLDY    48  46  91 N5        30.20S
JASPER         CLEAR     43  41  95 N5        30.22S
$$

ACROSS CENTRAL LOUISIANA

CITY           SKY/WX    TMP DP  RH WIND       PRES   REMARKS
LEESVILLE      NOT AVBL
FULLERTON        N/A     45  41  86 N3        30.17S
ALEXANDRIA INT PTCLDY    43  42  97 NW6       30.19R
ESLER FIELD    PTCLDY    43  41  93 CALM      30.19S
DERIDDER         N/A     44  42  93 N6        30.20F
OAKDALE        PTCLDY    44  43  95 CALM      30.19S
OPELOUSAS        N/A     45  44  97 E3        30.18S
$$

ACROSS SOUTHWEST AND SOUTH CENTRAL LOUISIANA

CITY           SKY/WX    TMP DP  RH WIND       PRES   REMARKS
SULPHUR        PTCLDY    48  46  92 N5        30.19S
LAKE CHARLES   PTCLDY    47  44  90 N3        30.18S
CHENNAULT INT  PTCLDY    46  44  93 N3        30.18F
CAMERON PHI    CLEAR     46  46 100 NE5       30.20F
DEQUINCY         N/A     44  44 100 CALM      30.19S
JENNINGS         N/A     46  45  98 N3        30.18S
LAFAYETTE      CLEAR     46  44  93 CALM      30.18S
NEW IBERIA     MOCLDY    49  46  90 N7        30.18S
ABBEVILLE      CLOUDY    46  46 100 N5        30.17F
PATTERSON      CLOUDY    50  46  87 NE12      30.17S
SALT POINT       N/A     54  49  83 CALM      30.15S
$$

SELECTED SITES ACROSS THE REGION

CITY           SKY/WX    TMP DP  RH WIND       PRES   REMARKS
HOUSTON BUSH   CLOUDY    51  48  89 N6        30.19R
HOUSTON HOBBY  CLOUDY    52  48  86 N5        30.18S
GALVESTON      CLOUDY    54  50  86 N9        30.19R
COLLEGE STAT   CLOUDY    50  45  83 NE7       30.19F
CONROE         CLOUDY    50  47  89 N3        30.19S
HUNTSVILLE     CLOUDY    50  46  86 CALM      30.19S
LUFKIN         PTCLDY    46  41  82 NE3       30.20S
SHREVEPORT     CLEAR     39  38  96 NW5       30.21R FOG
MONROE         CLEAR     43  39  86 NE6       30.22F
NATCHEZ MS     PTCLDY    43  39  87 CALM      30.19S
BATON ROUGE    MOCLDY    44  42  93 NE3       30.18S
N.O. INTL ARPT CLOUDY    53  47  79 NE12      30.16S
SLIDELL        CLOUDY    53  47  79 N7        30.15F
$$

MARINE REPORTS

STATION/POSITION TIME  TEMP    WIND        PRES    VSBY  WAVE
                       AIR SEA DIR/SP/G                  HT/PER
                 (UTC) (F)     (DEG/KT/KT) (MB)    (MI)  (FT/S)
BUOY 30 S HIGH I 0400   56 64  360/ 10/ 12 1021.0R         2/ 6
SEA RIM ST PARK  0400   52      60/  8/ 11 1022.1S
PORT ARTHUR      0400      60   40/  2/  8 1021.9R
SABINE PASS N    0400   52 60   40/  7/  9 1021.7R
TEXAS POINT      NOT AVBL
CALCASIEU PASS   0400   48 60   70/  5/  6   N/A
LK CHARLES BEACH 0400   49 60              1022.1S
MARSH ISLAND     NOT AVBL
FRESH WATER LOCK 0400   51 58   10/  7/  9 1021.2F
AMERADA PASS     0400   51 50   40/  2/  5 1021.1R
$$


USA.gov is the U.S. government's official web portal to all federal, state and local government web resources and services.